Weather History for PASI - February, 2013

Change the Weather History Date:

Friday, February 1, 2013

  Actual Average Record
Temperature  
Mean Temperature 42 °F -  
Max Temperature 46 °F 38 °F 54 °F (1998)
Min Temperature 37 °F 31 °F 3 °F (1968)
Degree Days  
Heating Degree Days 24    
Moisture  
Dew Point 38 °F    
Average Humidity 87    
Maximum Humidity 100    
Minimum Humidity 68    
Precipitation  
Precipitation 0.35 in - - ()
Sea Level Pressure  
Sea Level Pressure 30.05 in    
Wind  
Wind Speed 7 mph (ESE)    
Max Wind Speed 17 mph    
Max Gust Speed 25 mph    
Visibility 9 miles    
Events Rain    
Averages and records for this station are not official NWS values.
T = Trace of Precipitation, MM = Missing Value Source: NWS Daily Summary

Daily Weather History Graph

Daily Weather History Graph

Search for Another Location

Airport or City:

Trip Planner

Search our weather history database for the weather conditions in past years. The results will help you decide how hot, cold, wet, or windy it might be!

Date:

Astronomy

Feb. 01, 2013 Rise Set
Actual Time 7:59 AM AKST 4:31 PM AKST
Civil Twilight 7:17 AM AKST 5:13 PM AKST
Nautical Twilight 6:31 AM AKST 5:59 PM AKST
Astronomical Twilight 5:46 AM AKST 6:44 PM AKST
Moon No Moon Rise 9:16 AM AKST (2/1)
Length of Visible Light 9h 56m
Length of Day
8h 31m
Waning Gibbous, 69% of the Moon is Illuminated
Feb 1
Waning Gibbous
Feb 3
Last Quarter
Feb 9
New
Feb 17
First Quarter
Feb 25
Full

Hourly Weather History & Observations

Time (AKST) Temp. Windchill Dew Point Humidity Pressure Visibility Wind Dir Wind Speed Gust Speed Precip Events Conditions
12:21 AM 37.4 °F 33.8 °F 37.4 °F 100% 30.10 in 10.0 mi SSE 4.6 mph - 0.00 in Rain Light Rain
12:53 AM 37.9 °F 34.4 °F 37.9 °F 100% 30.11 in 10.0 mi NE 4.6 mph - 0.01 in Rain Light Rain
1:21 AM 39.2 °F 37.0 °F 39.2 °F 100% 30.11 in 10.0 mi East 3.5 mph - 0.01 in Rain Light Rain
1:53 AM 39.9 °F 36.7 °F 39.0 °F 97% 30.10 in 10.0 mi ESE 4.6 mph - 0.03 in Rain Light Rain
3:14 AM 39.2 °F 33.6 °F 39.2 °F 100% 30.10 in 9.0 mi SSE 8.1 mph - 0.01 in Rain Light Rain
3:33 AM 39.2 °F 35.9 °F 39.2 °F 100% 30.09 in 10.0 mi ENE 4.6 mph - 0.01 in Rain Light Rain
3:53 AM 39.9 °F - 39.9 °F 100% 30.09 in 8.0 mi Calm Calm - 0.02 in Rain Light Rain
4:53 AM 39.9 °F - 39.9 °F 100% 30.08 in 8.0 mi Calm Calm - 0.04 in Rain Light Rain
5:53 AM 39.9 °F - 39.9 °F 100% 30.07 in 9.0 mi Calm Calm - 0.04 in Rain Light Rain
6:53 AM 39.0 °F - 39.0 °F 100% 30.06 in 6.0 mi Calm Calm - 0.05 in Rain Light Rain
7:53 AM 39.2 °F - 39.2 °F 100% 30.05 in 9.0 mi Calm Calm - N/A Rain Light Rain
8:53 AM 39.9 °F 37.8 °F 39.9 °F 100% 30.05 in 10.0 mi NNW 3.5 mph - 0.02 in Rain Light Rain
9:53 AM 39.9 °F - 39.9 °F 100% 30.05 in 9.0 mi Calm Calm - 0.01 in Rain Light Rain
10:53 AM 41.0 °F 39.0 °F 39.2 °F 93% 30.06 in 9.0 mi ENE 3.5 mph - N/A Rain Light Rain
11:53 AM 44.1 °F 37.7 °F 37.9 °F 79% 30.06 in 10.0 mi ESE 12.7 mph - 0.02 in Rain Light Rain
12:53 PM 44.1 °F 37.4 °F 39.0 °F 82% 30.05 in 8.0 mi ESE 13.8 mph - 0.06 in Rain Light Rain
1:53 PM 45.0 °F 37.9 °F 37.9 °F 76% 30.04 in 10.0 mi ESE 16.1 mph 24.2 mph 0.03 in   Overcast
2:53 PM 46.0 °F 39.3 °F 37.0 °F 71% 30.03 in 10.0 mi ESE 16.1 mph 25.3 mph 0.00 in   Overcast
3:53 PM 46.0 °F 39.9 °F 37.0 °F 71% 30.03 in 10.0 mi ESE 13.8 mph 23.0 mph 0.01 in Rain Light Rain
4:53 PM 46.0 °F 39.9 °F 37.9 °F 73% 30.02 in 10.0 mi ESE 13.8 mph - 0.00 in   Overcast
5:53 PM 46.0 °F 39.3 °F 37.9 °F 73% 30.01 in 10.0 mi ESE 16.1 mph - N/A   Overcast
6:53 PM 46.9 °F - 37.0 °F 68% 30.01 in 10.0 mi ESE 16.1 mph 23.0 mph N/A   Overcast
7:53 PM 46.9 °F - 37.0 °F 68% 30.01 in 10.0 mi ESE 13.8 mph - N/A   Overcast
8:53 PM 46.0 °F 39.6 °F 37.9 °F 73% 30.01 in 10.0 mi ESE 15.0 mph - 0.00 in Rain Light Rain
9:53 PM 46.0 °F 39.0 °F 37.9 °F 73% 30.00 in 10.0 mi ESE 17.3 mph - 0.01 in Rain Light Rain
10:53 PM 46.0 °F 39.3 °F 37.9 °F 73% 29.99 in 10.0 mi ESE 16.1 mph - 0.00 in Rain Light Rain
11:53 PM 46.0 °F 40.6 °F 37.0 °F 71% 29.98 in 10.0 mi ESE 11.5 mph - 0.00 in   Overcast